Location: Gauravaram
(16.6995°N, 80.5417°E)
Time: 20:59:17
(UTC+00:00)

Cosmos 1140 Rocket - Pass Details

Date: 03 August 2024
Orbit: 741 x 764 km, 74.1° (Epoch: 18 September)

Event Time Altitude Azimuth Distance (km) Brightness Sun altitude
Rises 14:55:54 0° 355° (N) 3,194 7.2 -24.4°
Reaches altitude 10° 14:58:20 10° 1° (N) 2,273 6.3 -24.9°
Enters shadow 15:02:10 41° 38° (NE) 1,091 4.1 -25.7°
